Time,TemperatureF,DewpointF,PressureIn,WindDirection,WindDirectionDegrees,WindSpeedMPH,WindSpeedGustMPH,Humidity,HourlyPrecipIn,Conditions,Clouds,dailyrainin,SoftwareType,DateUTC
2013-06-03 00:02:00,74.7,70.9,29.88,NNE,22,0.0,0.0,88,0.00,RA,,0.00,WeatherDisplay:10.37,2013-06-03 05:02:00,
2013-06-03 00:07:00,74.7,70.9,29.88,NNE,22,1.1,0.0,88,0.00,RA,,0.00,WeatherDisplay:10.37,2013-06-03 05:07:00,
2013-06-03 00:12:00,74.7,70.9,29.88,North,0,1.1,1.1,88,0.00,CLR,,0.00,WeatherDisplay:10.37,2013-06-03 05:12:00,
2013-06-03 00:17:00,74.5,70.7,29.88,North,0,1.1,0.0,88,0.00,CLR,,0.00,WeatherDisplay:10.37,2013-06-03 05:17:00,
2013-06-03 00:22:00,74.5,70.7,29.88,SE,135,2.4,0.0,88,0.00,CLR,,0.00,WeatherDisplay:10.37,2013-06-03 05:22:00,
2013-06-03 00:27:00,74.5,70.7,29.88,SSE,158,2.4,2.4,88,0.00,CLR,,0.00,WeatherDisplay:10.37,2013-06-03 05:27:00,
2013-06-03 00:32:00,74.3,70.5,29.88,South,180,2.3,2.3,88,0.00,CLR,,0.00,WeatherDisplay:10.37,2013-06-03 05:32:00,
2013-06-03 00:37:00,74.3,70.8,29.88,SSE,158,3.5,3.5,89,0.00,CLR,,0.00,WeatherDisplay:10.37,2013-06-03 05:37:00,
2013-06-03 00:42:00,74.3,70.8,29.88,South,180,2.3,2.3,89,0.00,CLR,,0.00,WeatherDisplay:10.37,2013-06-03 05:42:00,
2013-06-03 00:47:00,74.3,70.8,29.88,SSE,158,2.3,2.3,89,0.00,CLR,,0.00,WeatherDisplay:10.37,2013-06-03 05:47:00,
2013-06-03 00:52:00,74.3,70.8,29.88,South,180,3.5,3.5,89,0.00,CLR,,0.00,WeatherDisplay:10.37,2013-06-03 05:52:00,
2013-06-03 00:57:00,74.3,70.8,29.88,SSW,202,3.5,3.5,89,0.00,CLR,,0.00,WeatherDisplay:10.37,2013-06-03 05:57:00,
2013-06-03 01:02:00,74.3,70.8,29.88,NE,45,0.0,0.0,89,0.00,CLR,,0.00,WeatherDisplay:10.37,2013-06-03 06:02:00,
2013-06-03 01:07:00,74.1,70.7,29.88,SSE,158,2.3,2.4,89,0.00,CLR,,0.00,WeatherDisplay:10.37,2013-06-03 06:07:00,
2013-06-03 01:12:00,74.1,70.7,29.88,South,180,3.5,3.5,89,0.00,CLR,,0.00,WeatherDisplay:10.37,2013-06-03 06:12:00,
2013-06-03 01:17:00,74.1,70.3,29.85,SSE,158,2.3,2.3,88,0.00,CLR,,0.00,WeatherDisplay:10.37,2013-06-03 06:17:00,
2013-06-03 01:22:00,73.9,70.2,29.85,SSE,158,0.0,0.0,88,0.00,CLR,,0.00,WeatherDisplay:10.37,2013-06-03 06:22:00,
2013-06-03 01:27:00,73.9,70.2,29.85,North,0,1.6,1.6,88,0.00,CLR,,0.00,WeatherDisplay:10.37,2013-06-03 06:27:00,
2013-06-03 01:32:00,73.9,70.2,29.85,North,0,2.0,0.0,88,0.00,CLR,,0.00,WeatherDisplay:10.37,2013-06-03 06:32:00,
2013-06-03 01:37:00,73.8,70.0,29.85,North,0,2.3,2.3,88,0.00,CLR,,0.00,WeatherDisplay:10.37,2013-06-03 06:37:00,
2013-06-03 01:42:00,73.6,69.8,29.85,North,0,1.1,0.0,88,0.00,CLR,,0.00,WeatherDisplay:10.37,2013-06-03 06:42:00,
2013-06-03 01:47:00,73.6,69.8,29.85,NNW,338,0.0,0.0,88,0.00,CLR,,0.00,WeatherDisplay:10.37,2013-06-03 06:47:00,
2013-06-03 01:52:00,73.4,69.6,29.85,North,0,0.0,0.0,88,0.00,CLR,,0.00,WeatherDisplay:10.37,2013-06-03 06:52:00,
2013-06-03 01:57:00,73.4,69.6,29.85,East,90,0.0,0.0,88,0.00,CLR,,0.00,WeatherDisplay:10.37,2013-06-03 06:57:00,
2013-06-03 02:02:00,73.2,69.5,29.85,South,180,2.3,2.3,88,0.00,CLR,,0.00,WeatherDisplay:10.37,2013-06-03 07:02:00,
2013-06-03 02:07:00,73.0,69.3,29.85,South,180,0.0,0.0,88,0.00,CLR,,0.00,WeatherDisplay:10.37,2013-06-03 07:07:00,
2013-06-03 02:12:00,72.7,68.9,29.85,SE,135,2.3,2.3,88,0.00,CLR,,0.00,WeatherDisplay:10.37,2013-06-03 07:12:00,
2013-06-03 02:17:00,72.5,68.7,29.83,East,90,1.1,0.0,88,0.00,CLR,,0.00,WeatherDisplay:10.37,2013-06-03 07:17:00,
2013-06-03 02:22:00,72.5,69.1,29.83,ESE,112,0.0,0.0,89,0.00,CLR,,0.00,WeatherDisplay:10.37,2013-06-03 07:22:00,
2013-06-03 02:27:00,72.3,68.9,29.83,SSE,158,3.1,3.1,89,0.00,CLR,,0.00,WeatherDisplay:10.37,2013-06-03 07:27:00,
2013-06-03 02:32:00,72.1,68.7,29.83,East,90,0.0,0.0,89,0.00,CLR,,0.00,WeatherDisplay:10.37,2013-06-03 07:32:00,
2013-06-03 02:37:00,72.0,68.5,29.83,ESE,112,0.0,0.0,89,0.00,CLR,,0.00,WeatherDisplay:10.37,2013-06-03 07:37:00,
2013-06-03 02:43:00,71.8,68.4,29.83,SE,135,3.5,3.5,89,0.00,CLR,,0.00,WeatherDisplay:10.37,2013-06-03 07:43:00,
2013-06-03 02:48:00,71.8,68.4,29.83,SE,135,2.3,2.3,89,0.00,CLR,,0.00,WeatherDisplay:10.37,2013-06-03 07:48:00,
2013-06-03 02:53:00,71.6,68.5,29.83,SE,135,0.0,0.0,90,0.00,CLR,,0.00,WeatherDisplay:10.37,2013-06-03 07:53:00,
2013-06-03 02:58:00,71.6,68.5,29.83,ENE,68,0.0,0.0,90,0.00,CLR,,0.00,WeatherDisplay:10.37,2013-06-03 07:58:00,
2013-06-03 03:03:00,71.6,68.5,29.85,East,90,0.0,0.0,90,0.00,CLR,,0.00,WeatherDisplay:10.37,2013-06-03 08:03:00,
2013-06-03 03:08:00,71.4,68.7,29.85,North,0,1.4,1.4,91,0.00,CLR,,0.00,WeatherDisplay:10.37,2013-06-03 08:08:00,
2013-06-03 03:13:00,71.4,68.7,29.85,North,0,0.0,0.0,91,0.00,CLR,,0.00,WeatherDisplay:10.37,2013-06-03 08:13:00,
2013-06-03 03:18:00,71.4,68.7,29.85,ENE,68,0.0,0.0,91,0.00,CLR,,0.00,WeatherDisplay:10.37,2013-06-03 08:18:00,
2013-06-03 03:23:00,71.2,68.5,29.85,North,0,0.0,0.0,91,0.00,CLR,,0.00,WeatherDisplay:10.37,2013-06-03 08:23:00,
2013-06-03 03:28:00,71.2,68.5,29.85,North,0,0.0,0.0,91,0.00,CLR,,0.00,WeatherDisplay:10.37,2013-06-03 08:28:00,
2013-06-03 03:33:00,71.1,68.3,29.85,North,0,0.0,0.0,91,0.00,CLR,,0.00,WeatherDisplay:10.37,2013-06-03 08:33:00,
2013-06-03 03:38:00,71.1,68.3,29.85,North,0,0.0,0.0,91,0.00,CLR,,0.00,WeatherDisplay:10.37,2013-06-03 08:38:00,
2013-06-03 03:43:00,71.1,68.3,29.85,North,0,0.0,0.0,91,0.00,CLR,,0.00,WeatherDisplay:10.37,2013-06-03 08:43:00,
2013-06-03 03:48:00,70.9,68.1,29.85,NW,315,0.0,0.0,91,0.00,CLR,,0.00,WeatherDisplay:10.37,2013-06-03 08:48:00,
2013-06-03 03:53:00,70.9,68.1,29.85,SE,135,0.0,0.0,91,0.00,CLR,,0.00,WeatherDisplay:10.37,2013-06-03 08:53:00,
2013-06-03 03:58:00,70.9,68.1,29.85,SE,135,0.0,0.0,91,0.00,CLR,,0.00,WeatherDisplay:10.37,2013-06-03 08:58:00,
2013-06-03 04:03:00,70.9,68.1,29.85,North,0,0.0,0.0,91,0.00,CLR,,0.00,WeatherDisplay:10.37,2013-06-03 09:03:00,
2013-06-03 04:08:00,70.9,68.4,29.85,North,0,0.0,0.0,92,0.00,CLR,,0.00,WeatherDisplay:10.37,2013-06-03 09:08:00,
2013-06-03 04:13:00,70.9,68.4,29.85,North,0,0.0,0.0,92,0.00,CLR,,0.00,WeatherDisplay:10.37,2013-06-03 09:13:00,
2013-06-03 04:18:00,70.9,68.4,29.85,NW,315,0.0,0.0,92,0.00,CLR,,0.00,WeatherDisplay:10.37,2013-06-03 09:18:00,
2013-06-03 04:23:00,71.1,68.6,29.85,West,270,0.0,0.0,92,0.00,CLR,,0.00,WeatherDisplay:10.37,2013-06-03 09:23:00,
2013-06-03 04:28:00,71.1,68.9,29.85,West,270,0.0,0.0,93,0.00,CLR,,0.00,WeatherDisplay:10.37,2013-06-03 09:28:00,
2013-06-03 04:33:00,71.1,68.9,29.85,ESE,112,0.9,0.0,93,0.00,CLR,,0.00,WeatherDisplay:10.37,2013-06-03 09:33:00,
2013-06-03 04:38:00,71.1,68.9,29.85,North,0,0.0,0.0,93,0.00,CLR,,0.00,WeatherDisplay:10.37,2013-06-03 09:38:00,
2013-06-03 04:43:00,71.1,68.9,29.85,North,0,0.0,0.0,93,0.00,CLR,,0.00,WeatherDisplay:10.37,2013-06-03 09:43:00,
2013-06-03 04:48:00,71.2,69.1,29.85,North,0,0.0,0.0,93,0.00,CLR,,0.00,WeatherDisplay:10.37,2013-06-03 09:48:00,
2013-06-03 04:53:00,71.2,69.1,29.85,South,180,3.5,3.5,93,0.00,CLR,,0.00,WeatherDisplay:10.37,2013-06-03 09:53:00,
2013-06-03 04:58:00,71.2,69.1,29.85,ESE,112,1.1,0.0,93,0.00,CLR,,0.00,WeatherDisplay:10.37,2013-06-03 09:58:00,
2013-06-03 05:03:00,71.2,69.1,29.85,ESE,112,0.0,0.0,93,0.00,CLR,,0.00,WeatherDisplay:10.37,2013-06-03 10:03:00,
2013-06-03 05:08:00,71.2,69.1,29.85,NNE,22,0.0,0.0,93,0.00,CLR,,0.00,WeatherDisplay:10.37,2013-06-03 10:08:00,
2013-06-03 05:13:00,71.2,69.1,29.85,NNE,22,0.0,0.0,93,0.00,CLR,,0.00,WeatherDisplay:10.37,2013-06-03 10:13:00,
2013-06-03 05:18:00,71.2,69.1,29.85,NNE,22,0.0,0.0,93,0.00,CLR,,0.00,WeatherDisplay:10.37,2013-06-03 10:18:00,
2013-06-03 05:23:00,71.2,69.1,29.85,NNE,22,0.0,0.0,93,0.00,CLR,,0.00,WeatherDisplay:10.37,2013-06-03 10:23:00,
2013-06-03 05:28:00,71.2,69.1,29.85,NNE,22,0.0,0.0,93,0.00,CLR,,0.00,WeatherDisplay:10.37,2013-06-03 10:28:00,
2013-06-03 05:33:00,71.2,69.1,29.88,NW,315,0.0,0.0,93,0.00,CLR,,0.00,WeatherDisplay:10.37,2013-06-03 10:33:00,
2013-06-03 05:38:00,71.2,69.1,29.88,NW,315,0.0,0.0,93,0.00,CLR,,0.00,WeatherDisplay:10.37,2013-06-03 10:38:00,
2013-06-03 05:43:00,71.2,69.1,29.88,NW,315,0.0,0.0,93,0.00,CLR,,0.00,WeatherDisplay:10.37,2013-06-03 10:43:00,
2013-06-03 05:48:00,71.1,68.9,29.88,South,180,0.0,0.0,93,0.00,CLR,,0.00,WeatherDisplay:10.37,2013-06-03 10:48:00,
2013-06-03 05:53:00,71.1,68.9,29.88,SSE,158,0.0,0.0,93,0.00,CLR,,0.00,WeatherDisplay:10.37,2013-06-03 10:53:00,
2013-06-03 05:58:00,71.1,68.9,29.91,SSE,158,0.0,0.0,93,0.00,CLR,,0.00,WeatherDisplay:10.37,2013-06-03 10:58:00,
2013-06-03 06:03:00,70.9,68.8,29.91,SSE,158,2.0,0.0,93,0.00,CLR,,0.00,WeatherDisplay:10.37,2013-06-03 11:03:00,
2013-06-03 06:08:00,70.9,68.8,29.91,South,180,2.3,2.3,93,0.00,CLR,,0.00,WeatherDisplay:10.37,2013-06-03 11:08:00,
2013-06-03 06:13:00,70.9,68.8,29.91,SE,135,0.0,0.0,93,0.00,CLR,,0.00,WeatherDisplay:10.37,2013-06-03 11:13:00,
2013-06-03 06:18:00,70.9,68.8,29.91,SE,135,0.0,0.0,93,0.00,CLR,,0.00,WeatherDisplay:10.37,2013-06-03 11:18:00,
2013-06-03 06:23:00,71.2,69.1,29.91,NW,315,1.1,1.1,93,0.00,CLR,,0.00,WeatherDisplay:10.37,2013-06-03 11:23:00,
2013-06-03 06:28:00,71.4,69.6,29.91,NW,315,1.1,1.1,94,0.00,CLR,,0.00,WeatherDisplay:10.37,2013-06-03 11:28:00,
2013-06-03 06:33:00,71.8,70.0,29.91,NW,315,2.3,0.0,94,0.00,CLR,,0.00,WeatherDisplay:10.37,2013-06-03 11:33:00,
2013-06-03 06:38:00,72.0,70.1,29.91,NNE,22,1.6,0.0,94,0.00,CLR,,0.00,WeatherDisplay:10.37,2013-06-03 11:38:00,
2013-06-03 06:43:00,72.1,70.3,29.94,NNW,338,3.1,3.1,94,0.00,CLR,,0.00,WeatherDisplay:10.37,2013-06-03 11:43:00,
2013-06-03 06:48:00,72.3,70.5,29.94,North,0,1.1,0.0,94,0.00,CLR,,0.00,WeatherDisplay:10.37,2013-06-03 11:48:00,
2013-06-03 06:53:00,72.5,70.7,29.94,ENE,68,2.3,2.3,94,0.00,CLR,,0.00,WeatherDisplay:10.37,2013-06-03 11:53:00,
2013-06-03 06:58:00,72.7,70.9,29.91,North,0,2.4,0.0,94,0.00,CLR,,0.00,WeatherDisplay:10.37,2013-06-03 11:58:00,
2013-06-03 07:03:00,72.9,70.7,29.91,North,0,2.3,2.3,93,0.00,CLR,,0.00,WeatherDisplay:10.37,2013-06-03 12:03:00,
2013-06-03 07:08:00,73.0,70.9,29.91,North,0,2.3,2.3,93,0.00,CLR,,0.00,WeatherDisplay:10.37,2013-06-03 12:08:00,
2013-06-03 07:13:00,75.6,73.4,29.91,North,0,2.3,2.3,93,0.00,CLR,,0.00,WeatherDisplay:10.37,2013-06-03 12:13:00,
2013-06-03 07:18:00,78.4,76.2,29.91,NNE,22,1.1,0.0,93,0.00,CLR,,0.00,WeatherDisplay:10.37,2013-06-03 12:18:00,
2013-06-03 07:23:00,80.6,77.4,29.91,ENE,68,1.1,1.1,90,0.00,CLR,,0.00,WeatherDisplay:10.37,2013-06-03 12:23:00,
2013-06-03 07:28:00,82.2,78.3,29.91,North,0,1.1,0.0,88,0.00,CLR,,0.00,WeatherDisplay:10.37,2013-06-03 12:28:00,
2013-06-03 07:33:00,83.8,77.0,29.91,North,0,1.1,0.0,80,0.00,CLR,,0.00,WeatherDisplay:10.37,2013-06-03 12:33:00,
2013-06-03 07:38:00,84.6,75.8,29.91,North,0,2.6,2.6,75,0.00,CLR,,0.00,WeatherDisplay:10.37,2013-06-03 12:38:00,
2013-06-03 07:43:00,85.5,75.8,29.91,NNE,22,1.6,1.6,73,0.00,CLR,,0.00,WeatherDisplay:10.37,2013-06-03 12:43:00,
2013-06-03 07:48:00,86.2,73.9,29.91,West,270,3.5,3.5,67,0.00,CLR,,0.00,WeatherDisplay:10.37,2013-06-03 12:48:00,
2013-06-03 07:53:00,86.9,71.8,29.91,North,0,3.5,3.5,61,0.00,CLR,,0.00,WeatherDisplay:10.37,2013-06-03 12:53:00,
2013-06-03 07:58:00,87.8,71.7,29.91,North,0,2.9,2.9,59,0.00,CLR,,0.00,WeatherDisplay:10.37,2013-06-03 12:58:00,
2013-06-03 08:03:00,88.2,70.5,29.91,North,0,3.1,3.1,56,0.00,CLR,,0.00,WeatherDisplay:10.37,2013-06-03 13:03:00,
2013-06-03 08:08:00,88.7,67.7,29.91,NW,315,2.4,2.4,50,0.00,CLR,,0.00,WeatherDisplay:10.37,2013-06-03 13:08:00,
2013-06-03 08:13:00,89.1,67.4,29.91,NNE,22,2.4,2.4,49,0.00,CLR,,0.00,WeatherDisplay:10.37,2013-06-03 13:13:00,
2013-06-03 08:18:00,89.1,66.8,29.91,NNW,338,3.5,3.5,48,0.00,CLR,,0.00,WeatherDisplay:10.37,2013-06-03 13:18:00,
2013-06-03 08:23:00,89.2,63.1,29.91,NNW,338,5.6,5.6,42,0.00,CLR,,0.00,WeatherDisplay:10.37,2013-06-03 13:23:00,
2013-06-03 08:28:00,89.4,62.6,29.91,North,0,3.6,3.6,41,0.00,CLR,,0.00,WeatherDisplay:10.37,2013-06-03 13:28:00,
2013-06-03 08:34:00,90.1,63.3,29.91,NNE,22,4.6,4.6,41,0.00,CLR,,0.00,WeatherDisplay:10.37,2013-06-03 13:34:00,
2013-06-03 08:39:00,90.3,62.0,29.91,NNE,22,3.5,3.5,39,0.00,CLR,,0.00,WeatherDisplay:10.37,2013-06-03 13:39:00,
2013-06-03 08:44:00,90.5,62.2,29.91,East,90,3.6,3.6,39,0.00,CLR,,0.00,WeatherDisplay:10.37,2013-06-03 13:44:00,
2013-06-03 08:49:00,90.5,60.7,29.91,NNW,338,4.6,4.6,37,0.00,CLR,,0.00,WeatherDisplay:10.37,2013-06-03 13:49:00,
2013-06-03 08:54:00,90.9,61.0,29.91,ENE,68,3.5,3.5,37,0.00,CLR,,0.00,WeatherDisplay:10.37,2013-06-03 13:54:00,
2013-06-03 08:59:00,91.2,62.1,29.91,NNW,338,3.5,3.5,38,0.00,CLR,,0.00,WeatherDisplay:10.37,2013-06-03 13:59:00,
2013-06-03 09:04:00,90.9,59.4,29.91,North,0,4.6,4.6,35,0.00,CLR,,0.00,WeatherDisplay:10.37,2013-06-03 14:04:00,
2013-06-03 09:09:00,91.0,59.6,29.91,NNE,22,4.6,4.6,35,0.00,CLR,,0.00,WeatherDisplay:10.37,2013-06-03 14:09:00,
2013-06-03 09:14:00,91.0,58.8,29.88,NNE,22,5.8,5.8,34,0.00,CLR,,0.00,WeatherDisplay:10.37,2013-06-03 14:14:00,
2013-06-03 09:19:00,91.2,58.1,29.88,North,0,5.6,5.6,33,0.00,CLR,,0.00,WeatherDisplay:10.37,2013-06-03 14:19:00,
2013-06-03 09:24:00,91.8,57.7,29.88,NNE,22,4.6,4.6,32,0.00,CLR,,0.00,WeatherDisplay:10.37,2013-06-03 14:24:00,
2013-06-03 09:29:00,91.9,58.7,29.91,NNE,22,6.2,6.2,33,0.00,CLR,,0.00,WeatherDisplay:10.37,2013-06-03 14:29:00,
2013-06-03 09:34:00,92.1,58.0,29.91,NNW,338,5.8,5.8,32,0.00,CLR,,0.00,WeatherDisplay:10.37,2013-06-03 14:34:00,
2013-06-03 09:39:00,92.8,59.5,29.91,North,0,5.8,5.8,33,0.00,CLR,,0.00,WeatherDisplay:10.37,2013-06-03 14:39:00,
2013-06-03 09:44:00,93.7,60.3,29.91,SSW,202,3.5,3.5,33,0.00,CLR,,0.00,WeatherDisplay:10.37,2013-06-03 14:44:00,
2013-06-03 09:49:00,95.0,59.6,29.91,ENE,68,1.4,1.4,31,0.00,CLR,,0.00,WeatherDisplay:10.37,2013-06-03 14:49:00,
2013-06-03 09:54:00,94.8,59.5,29.91,SSE,158,3.5,3.5,31,0.00,CLR,,0.00,WeatherDisplay:10.37,2013-06-03 14:54:00,
2013-06-03 09:59:00,95.4,59.9,29.88,North,0,2.3,2.3,31,0.00,CLR,,0.00,WeatherDisplay:10.37,2013-06-03 14:59:00,
2013-06-03 10:04:00,95.2,57.9,29.88,NNE,22,3.5,3.5,29,0.00,CLR,,0.00,WeatherDisplay:10.37,2013-06-03 15:04:00,
2013-06-03 10:09:00,95.2,56.9,29.88,ENE,68,3.5,3.5,28,0.00,CLR,,0.00,WeatherDisplay:10.37,2013-06-03 15:09:00,
2013-06-03 10:14:00,95.7,57.4,29.88,North,0,4.6,4.6,28,0.00,CLR,,0.00,WeatherDisplay:10.37,2013-06-03 15:14:00,
2013-06-03 10:19:00,95.7,58.4,29.88,North,0,4.5,4.5,29,0.00,CLR,,0.00,WeatherDisplay:10.37,2013-06-03 15:19:00,
2013-06-03 10:24:00,95.9,57.6,29.88,NNE,22,2.3,2.3,28,0.00,CLR,,0.00,WeatherDisplay:10.37,2013-06-03 15:24:00,
2013-06-03 10:29:00,96.1,58.7,29.88,NNE,22,2.4,2.4,29,0.00,CLR,,0.00,WeatherDisplay:10.37,2013-06-03 15:29:00,
2013-06-03 10:34:00,91.9,55.1,29.88,North,0,4.6,4.6,29,0.00,CLR,,0.00,WeatherDisplay:10.37,2013-06-03 15:34:00,
2013-06-03 10:39:00,90.7,55.0,29.88,NNE,22,4.3,4.3,30,0.00,CLR,,0.00,WeatherDisplay:10.37,2013-06-03 15:39:00,
2013-06-03 10:44:00,89.2,55.5,29.88,North,0,3.5,3.5,32,0.00,CLR,,0.00,WeatherDisplay:10.37,2013-06-03 15:44:00,
2013-06-03 10:49:00,92.1,58.0,29.88,North,0,5.8,5.8,32,0.00,CLR,,0.00,WeatherDisplay:10.37,2013-06-03 15:49:00,
2013-06-03 10:54:00,94.1,58.8,29.88,North,0,4.6,4.6,31,0.00,CLR,,0.00,WeatherDisplay:10.37,2013-06-03 15:54:00,
2013-06-03 10:59:00,95.0,58.7,29.88,SSE,158,3.5,3.5,30,0.00,CLR,,0.00,WeatherDisplay:10.37,2013-06-03 15:59:00,
2013-06-03 11:04:00,93.2,56.2,29.88,NNE,22,5.8,5.8,29,0.00,CLR,,0.00,WeatherDisplay:10.37,2013-06-03 16:04:00,
2013-06-03 11:09:00,90.9,56.0,29.88,NNE,22,4.6,4.6,31,0.00,CLR,,0.00,WeatherDisplay:10.37,2013-06-03 16:09:00,
2013-06-03 11:14:00,90.3,55.6,29.85,NNE,22,2.6,2.6,31,0.00,CLR,,0.00,WeatherDisplay:10.37,2013-06-03 16:14:00,
2013-06-03 11:19:00,89.4,56.5,29.85,NNE,22,3.1,3.1,33,0.00,CLR,,0.00,WeatherDisplay:10.37,2013-06-03 16:19:00,
2013-06-03 11:24:00,91.0,59.6,29.85,North,0,3.5,3.5,35,0.00,CLR,,0.00,WeatherDisplay:10.37,2013-06-03 16:24:00,
2013-06-03 11:29:00,93.7,61.1,29.85,NNE,22,1.6,1.6,34,0.00,CLR,,0.00,WeatherDisplay:10.37,2013-06-03 16:29:00,
2013-06-03 11:34:00,94.3,59.0,29.85,NNW,338,5.8,5.8,31,0.00,CLR,,0.00,WeatherDisplay:10.37,2013-06-03 16:34:00,
2013-06-03 11:39:00,92.7,57.6,29.85,North,0,5.6,5.6,31,0.00,CLR,,0.00,WeatherDisplay:10.37,2013-06-03 16:39:00,
2013-06-03 11:44:00,90.5,56.6,29.85,North,0,3.5,3.5,32,0.00,CLR,,0.00,WeatherDisplay:10.37,2013-06-03 16:44:00,
2013-06-03 11:49:00,90.0,57.8,29.85,NNW,338,3.5,3.5,34,0.00,CLR,,0.00,WeatherDisplay:10.37,2013-06-03 16:49:00,
2013-06-03 11:54:00,89.6,57.5,29.85,North,0,3.5,3.5,34,0.00,CLR,,0.00,WeatherDisplay:10.37,2013-06-03 16:54:00,
2013-06-03 11:59:00,89.6,56.7,29.85,NNE,22,4.6,4.6,33,0.00,CLR,,0.00,WeatherDisplay:10.37,2013-06-03 16:59:00,
2013-06-03 12:04:00,91.8,61.0,29.85,East,90,2.3,2.4,36,0.00,CLR,,0.00,WeatherDisplay:10.37,2013-06-03 17:04:00,
2013-06-03 12:09:00,92.1,58.9,29.85,SE,135,3.5,3.5,33,0.00,CLR,,0.00,WeatherDisplay:10.37,2013-06-03 17:09:00,
2013-06-03 12:14:00,90.7,57.6,29.85,North,0,2.3,2.3,33,0.00,CLR,,0.00,WeatherDisplay:10.37,2013-06-03 17:14:00,
2013-06-03 12:19:00,90.1,55.4,29.85,North,0,5.8,5.8,31,0.00,CLR,,0.00,WeatherDisplay:10.37,2013-06-03 17:19:00,
2013-06-03 12:24:00,89.6,55.8,29.85,ENE,68,5.8,5.8,32,0.00,CLR,,0.00,WeatherDisplay:10.37,2013-06-03 17:24:00,
2013-06-03 12:29:00,89.1,55.4,29.83,ENE,68,3.5,3.5,32,0.00,CLR,,0.00,WeatherDisplay:10.37,2013-06-03 17:29:00,
2013-06-03 12:34:00,91.2,58.1,29.83,WSW,248,3.5,3.5,33,0.00,CLR,,0.00,WeatherDisplay:10.37,2013-06-03 17:34:00,
2013-06-03 12:39:00,90.1,56.3,29.83,NNW,338,5.8,5.8,32,0.00,CLR,,0.00,WeatherDisplay:10.37,2013-06-03 17:39:00,
2013-06-03 12:44:00,90.1,58.0,29.85,NNW,338,5.4,5.4,34,0.00,CLR,,0.00,WeatherDisplay:10.37,2013-06-03 17:44:00,
2013-06-03 12:49:00,91.0,59.6,29.85,NE,45,3.6,3.6,35,0.00,CLR,,0.00,WeatherDisplay:10.37,2013-06-03 17:49:00,
2013-06-03 12:54:00,91.8,59.4,29.85,WNW,292,3.5,3.5,34,0.00,CLR,,0.00,WeatherDisplay:10.37,2013-06-03 17:54:00,
2013-06-03 12:59:00,91.8,57.7,29.85,NNE,22,5.8,5.8,32,0.00,CLR,,0.00,WeatherDisplay:10.37,2013-06-03 17:59:00,
2013-06-03 13:04:00,91.9,56.1,29.85,North,0,5.8,5.8,30,0.00,CLR,,0.00,WeatherDisplay:10.37,2013-06-03 18:04:00,
2013-06-03 13:09:00,90.9,56.0,29.85,North,0,4.6,4.6,31,0.00,CLR,,0.00,WeatherDisplay:10.37,2013-06-03 18:09:00,
2013-06-03 13:14:00,91.2,57.2,29.85,NE,45,4.6,4.6,32,0.00,CLR,,0.00,WeatherDisplay:10.37,2013-06-03 18:14:00,
2013-06-03 13:19:00,91.8,56.8,29.85,NNE,22,4.6,4.6,31,0.00,CLR,,0.00,WeatherDisplay:10.37,2013-06-03 18:19:00,
2013-06-03 13:24:00,91.6,57.6,29.85,North,0,6.9,6.9,32,0.00,CLR,,0.00,WeatherDisplay:10.37,2013-06-03 18:24:00,
2013-06-03 13:29:00,91.9,59.6,29.85,NW,315,4.6,4.6,34,0.00,CLR,,0.00,WeatherDisplay:10.37,2013-06-03 18:29:00,
2013-06-03 13:34:00,91.8,58.6,29.85,NNE,22,3.5,3.5,33,0.00,CLR,,0.00,WeatherDisplay:10.37,2013-06-03 18:34:00,
2013-06-03 13:39:00,91.9,57.9,29.85,North,0,5.9,5.9,32,0.00,CLR,,0.00,WeatherDisplay:10.37,2013-06-03 18:39:00,
2013-06-03 13:44:00,91.6,55.8,29.85,West,270,5.8,5.8,30,0.00,CLR,,0.00,WeatherDisplay:10.37,2013-06-03 18:44:00,
2013-06-03 13:49:00,91.2,55.5,29.85,SSE,158,3.5,3.5,30,0.00,CLR,,0.00,WeatherDisplay:10.37,2013-06-03 18:49:00,
2013-06-03 13:54:00,91.0,56.2,29.85,North,0,5.8,5.8,31,0.00,CLR,,0.00,WeatherDisplay:10.37,2013-06-03 18:54:00,
2013-06-03 13:59:00,90.7,56.8,29.83,NNW,338,4.3,4.3,32,0.00,CLR,,0.00,WeatherDisplay:10.37,2013-06-03 18:59:00,
2013-06-03 14:05:00,90.5,56.6,29.83,NNW,338,5.8,5.8,32,0.00,CLR,,0.00,WeatherDisplay:10.37,2013-06-03 19:05:00,
2013-06-03 14:10:00,90.5,56.6,29.83,North,0,6.9,6.9,32,0.00,CLR,,0.00,WeatherDisplay:10.37,2013-06-03 19:10:00,
2013-06-03 14:15:00,90.3,58.1,29.83,NNW,338,5.8,5.8,34,0.00,CLR,,0.00,WeatherDisplay:10.37,2013-06-03 19:15:00,
2013-06-03 14:20:00,90.3,56.5,29.83,North,0,5.8,5.8,32,0.00,CLR,,0.00,WeatherDisplay:10.37,2013-06-03 19:20:00,
2013-06-03 14:25:00,90.3,56.5,29.83,North,0,2.6,2.6,32,0.00,CLR,,0.00,WeatherDisplay:10.37,2013-06-03 19:25:00,
2013-06-03 14:30:00,90.5,54.8,29.83,North,0,6.9,6.9,30,0.00,CLR,,0.00,WeatherDisplay:10.37,2013-06-03 19:30:00,
2013-06-03 14:35:00,90.7,55.9,29.83,North,0,4.9,4.9,31,0.00,CLR,,0.00,WeatherDisplay:10.37,2013-06-03 19:35:00,
2013-06-03 14:40:00,90.5,55.7,29.83,North,0,6.9,6.9,31,0.00,CLR,,0.00,WeatherDisplay:10.37,2013-06-03 19:40:00,
2013-06-03 14:45:00,90.5,57.5,29.83,NNW,338,5.8,5.8,33,0.00,CLR,,0.00,WeatherDisplay:10.37,2013-06-03 19:45:00,
2013-06-03 14:50:00,90.3,58.1,29.83,North,0,4.9,4.9,34,0.00,CLR,,0.00,WeatherDisplay:10.37,2013-06-03 19:50:00,
2013-06-03 14:55:00,90.1,57.2,29.83,NNE,22,6.9,6.9,33,0.00,CLR,,0.00,WeatherDisplay:10.37,2013-06-03 19:55:00,
2013-06-03 15:00:00,90.0,57.0,29.83,North,0,4.6,4.6,33,0.00,CLR,,0.00,WeatherDisplay:10.37,2013-06-03 20:00:00,
2013-06-03 15:05:00,90.0,56.1,29.83,North,0,2.3,2.3,32,0.00,CLR,,0.00,WeatherDisplay:10.37,2013-06-03 20:05:00,
2013-06-03 15:10:00,90.0,55.3,29.83,SW,225,4.6,4.6,31,0.00,CLR,,0.00,WeatherDisplay:10.37,2013-06-03 20:10:00,
2013-06-03 15:15:00,90.1,55.4,29.83,NNW,338,2.6,2.6,31,0.00,CLR,,0.00,WeatherDisplay:10.37,2013-06-03 20:15:00,
2013-06-03 15:20:00,90.1,55.4,29.83,North,0,4.6,4.6,31,0.00,CLR,,0.00,WeatherDisplay:10.37,2013-06-03 20:20:00,
2013-06-03 15:25:00,90.1,56.3,29.83,NW,315,5.8,5.8,32,0.00,CLR,,0.00,WeatherDisplay:10.37,2013-06-03 20:25:00,
2013-06-03 15:30:00,90.3,57.3,29.80,North,0,6.0,6.0,33,0.00,CLR,,0.00,WeatherDisplay:10.37,2013-06-03 20:30:00,
2013-06-03 15:35:00,89.4,53.9,29.80,North,0,3.5,3.5,30,0.00,CLR,,0.00,WeatherDisplay:10.37,2013-06-03 20:35:00,
2013-06-03 15:40:00,88.7,54.2,29.80,NNE,22,3.5,3.5,31,0.00,CLR,,0.00,WeatherDisplay:10.37,2013-06-03 20:40:00,
2013-06-03 15:45:00,88.3,53.9,29.80,NNE,22,3.5,3.5,31,0.00,CLR,,0.00,WeatherDisplay:10.37,2013-06-03 20:45:00,
2013-06-03 15:50:00,88.3,53.9,29.80,South,180,2.3,2.3,31,0.00,CLR,,0.00,WeatherDisplay:10.37,2013-06-03 20:50:00,
2013-06-03 15:55:00,88.5,54.9,29.80,NNE,22,3.1,3.1,32,0.00,CLR,,0.00,WeatherDisplay:10.37,2013-06-03 20:55:00,
2013-06-03 16:00:00,88.9,55.2,29.77,North,0,2.4,2.4,32,0.00,CLR,,0.00,WeatherDisplay:10.37,2013-06-03 21:00:00,
2013-06-03 16:05:00,89.1,56.2,29.77,NNW,338,5.4,5.4,33,0.00,CLR,,0.00,WeatherDisplay:10.37,2013-06-03 21:05:00,
2013-06-03 16:10:00,88.9,54.3,29.77,NNE,22,4.6,4.6,31,0.00,CLR,,0.00,WeatherDisplay:10.37,2013-06-03 21:10:00,
2013-06-03 16:15:00,88.9,56.1,29.80,NNW,338,4.6,4.6,33,0.00,CLR,,0.00,WeatherDisplay:10.37,2013-06-03 21:15:00,
2013-06-03 16:20:00,88.3,55.6,29.80,North,0,3.5,3.5,33,0.00,CLR,,0.00,WeatherDisplay:10.37,2013-06-03 21:20:00,
2013-06-03 16:25:00,88.2,54.6,29.80,NNE,22,2.4,2.4,32,0.00,CLR,,0.00,WeatherDisplay:10.37,2013-06-03 21:25:00,
2013-06-03 16:30:00,88.2,54.6,29.80,ESE,112,3.5,3.5,32,0.00,CLR,,0.00,WeatherDisplay:10.37,2013-06-03 21:30:00,
2013-06-03 16:35:00,88.5,55.7,29.80,NNW,338,4.6,4.6,33,0.00,CLR,,0.00,WeatherDisplay:10.37,2013-06-03 21:35:00,
2013-06-03 16:40:00,88.7,55.9,29.80,North,0,4.3,4.3,33,0.00,CLR,,0.00,WeatherDisplay:10.37,2013-06-03 21:40:00,
2013-06-03 16:45:00,88.7,54.2,29.80,ENE,68,2.3,2.3,31,0.00,CLR,,0.00,WeatherDisplay:10.37,2013-06-03 21:45:00,
2013-06-03 16:50:00,88.7,55.9,29.80,North,0,4.6,4.6,33,0.00,CLR,,0.00,WeatherDisplay:10.37,2013-06-03 21:50:00,
2013-06-03 16:55:00,88.7,55.9,29.80,North,0,5.9,5.9,33,0.00,CLR,,0.00,WeatherDisplay:10.37,2013-06-03 21:55:00,
2013-06-03 17:00:00,88.5,54.0,29.80,NNE,22,5.8,5.8,31,0.00,CLR,,0.00,WeatherDisplay:10.37,2013-06-03 22:00:00,
2013-06-03 17:05:00,88.5,54.9,29.80,NNE,22,5.8,5.8,32,0.00,CLR,,0.00,WeatherDisplay:10.37,2013-06-03 22:05:00,
2013-06-03 17:10:00,88.5,54.9,29.80,NNW,338,4.9,4.9,32,0.00,CLR,,0.00,WeatherDisplay:10.37,2013-06-03 22:10:00,
2013-06-03 17:15:00,88.5,54.9,29.80,NNE,22,5.8,5.8,32,0.00,CLR,,0.00,WeatherDisplay:10.37,2013-06-03 22:15:00,
2013-06-03 17:20:00,88.7,55.9,29.80,North,0,5.8,5.8,33,0.00,CLR,,0.00,WeatherDisplay:10.37,2013-06-03 22:20:00,
2013-06-03 17:25:00,88.7,55.1,29.80,North,0,5.4,5.4,32,0.00,CLR,,0.00,WeatherDisplay:10.37,2013-06-03 22:25:00,
2013-06-03 17:30:00,88.3,55.6,29.80,North,0,4.6,4.6,33,0.00,CLR,,0.00,WeatherDisplay:10.37,2013-06-03 22:30:00,
2013-06-03 17:35:00,88.3,55.6,29.80,NNW,338,6.0,6.0,33,0.00,CLR,,0.00,WeatherDisplay:10.37,2013-06-03 22:35:00,
2013-06-03 17:40:00,88.3,56.4,29.80,NE,45,5.8,5.8,34,0.00,CLR,,0.00,WeatherDisplay:10.37,2013-06-03 22:40:00,
2013-06-03 17:45:00,87.8,55.9,29.80,North,0,3.5,3.5,34,0.00,CLR,,0.00,WeatherDisplay:10.37,2013-06-03 22:45:00,
2013-06-03 17:50:00,87.4,55.6,29.80,NNW,338,4.6,4.6,34,0.00,CLR,,0.00,WeatherDisplay:10.37,2013-06-03 22:50:00,
2013-06-03 17:55:00,87.1,56.1,29.80,NNW,338,4.3,4.3,35,0.00,CLR,,0.00,WeatherDisplay:10.37,2013-06-03 22:55:00,
2013-06-03 18:00:00,87.1,56.9,29.80,NNE,22,3.5,3.5,36,0.00,CLR,,0.00,WeatherDisplay:10.37,2013-06-03 23:00:00,
2013-06-03 18:05:00,87.1,56.9,29.80,North,0,5.8,5.8,36,0.00,CLR,,0.00,WeatherDisplay:10.37,2013-06-03 23:05:00,
2013-06-03 18:10:00,87.1,57.7,29.80,NW,315,5.6,5.6,37,0.00,CLR,,0.00,WeatherDisplay:10.37,2013-06-03 23:10:00,
2013-06-03 18:15:00,86.9,56.7,29.80,North,0,4.6,4.6,36,0.00,CLR,,0.00,WeatherDisplay:10.37,2013-06-03 23:15:00,
2013-06-03 18:20:00,86.9,56.7,29.80,NNW,338,4.6,4.6,36,0.00,CLR,,0.00,WeatherDisplay:10.37,2013-06-03 23:20:00,
2013-06-03 18:25:00,86.7,56.6,29.80,NNE,22,4.6,4.6,36,0.00,CLR,,0.00,WeatherDisplay:10.37,2013-06-03 23:25:00,
2013-06-03 18:30:00,86.4,57.8,29.80,NNW,338,4.0,4.0,38,0.00,CLR,,0.00,WeatherDisplay:10.37,2013-06-03 23:30:00,
2013-06-03 18:35:00,86.4,57.8,29.80,NNE,22,3.5,3.5,38,0.00,CLR,,0.00,WeatherDisplay:10.37,2013-06-03 23:35:00,
2013-06-03 18:40:00,86.2,57.6,29.80,NNW,338,3.5,3.5,38,0.00,CLR,,0.00,WeatherDisplay:10.37,2013-06-03 23:40:00,
2013-06-03 18:45:00,86.0,58.2,29.80,North,0,4.6,4.6,39,0.00,CLR,,0.00,WeatherDisplay:10.37,2013-06-03 23:45:00,
2013-06-03 18:50:00,86.0,58.2,29.80,North,0,3.5,3.5,39,0.00,CLR,,0.00,WeatherDisplay:10.37,2013-06-03 23:50:00,
2013-06-03 18:55:00,86.0,58.9,29.80,NNE,22,3.5,3.5,40,0.00,CLR,,0.00,WeatherDisplay:10.37,2013-06-03 23:55:00,
2013-06-03 19:00:00,86.4,59.9,29.77,North,0,2.6,2.6,41,0.00,CLR,,0.00,WeatherDisplay:10.37,2013-06-04 00:00:00,
2013-06-03 19:05:00,86.5,60.0,29.77,NNE,22,4.6,4.6,41,0.00,CLR,,0.00,WeatherDisplay:10.37,2013-06-04 00:05:00,
2013-06-03 19:10:00,86.5,60.0,29.77,NNW,338,4.6,4.6,41,0.00,CLR,,0.00,WeatherDisplay:10.37,2013-06-04 00:10:00,
2013-06-03 19:15:00,86.4,58.5,29.80,North,0,3.5,3.5,39,0.00,CLR,,0.00,WeatherDisplay:10.37,2013-06-04 00:15:00,
2013-06-03 19:20:00,86.0,58.2,29.80,North,0,4.0,4.0,39,0.00,CLR,,0.00,WeatherDisplay:10.37,2013-06-04 00:20:00,
2013-06-03 19:25:00,85.6,58.5,29.80,North,0,3.1,3.1,40,0.00,CLR,,0.00,WeatherDisplay:10.37,2013-06-04 00:25:00,
2013-06-03 19:30:00,85.3,58.2,29.77,North,0,3.5,3.5,40,0.00,CLR,,0.00,WeatherDisplay:10.37,2013-06-04 00:30:00,
2013-06-03 19:35:00,84.9,58.6,29.77,NNW,338,2.3,2.3,41,0.00,CLR,,0.00,WeatherDisplay:10.37,2013-06-04 00:35:00,
2013-06-03 19:40:00,84.4,58.1,29.77,NNE,22,2.4,2.4,41,0.00,CLR,,0.00,WeatherDisplay:10.37,2013-06-04 00:40:00,
2013-06-03 19:45:00,84.0,58.5,29.80,North,0,2.6,2.6,42,0.00,CLR,,0.00,WeatherDisplay:10.37,2013-06-04 00:45:00,
2013-06-03 19:50:00,83.7,58.8,29.80,NNE,22,3.5,3.5,43,0.00,CLR,,0.00,WeatherDisplay:10.37,2013-06-04 00:50:00,
2013-06-03 19:55:00,83.3,59.1,29.80,North,0,2.3,2.3,44,0.00,CLR,,0.00,WeatherDisplay:10.37,2013-06-04 00:55:00,
2013-06-03 20:00:00,82.8,59.9,29.80,NNE,22,2.3,2.3,46,0.00,CLR,,0.00,WeatherDisplay:10.37,2013-06-04 01:00:00,
2013-06-03 20:05:00,82.4,60.1,29.80,NNE,22,1.1,1.1,47,0.00,CLR,,0.00,WeatherDisplay:10.37,2013-06-04 01:05:00,
2013-06-03 20:10:00,82.0,60.4,29.80,North,0,2.3,2.3,48,0.00,CLR,,0.00,WeatherDisplay:10.37,2013-06-04 01:10:00,
2013-06-03 20:15:00,81.7,60.7,29.80,North,0,2.3,2.3,49,0.00,CLR,,0.00,WeatherDisplay:10.37,2013-06-04 01:15:00,
2013-06-03 20:21:00,81.3,60.9,29.80,North,0,2.3,2.3,50,0.00,CLR,,0.00,WeatherDisplay:10.37,2013-06-04 01:21:00,
2013-06-03 20:26:00,81.0,61.7,29.80,NE,45,1.1,0.0,52,0.00,CLR,,0.00,WeatherDisplay:10.37,2013-06-04 01:26:00,
2013-06-03 20:31:00,80.8,62.1,29.83,South,180,2.0,2.0,53,0.00,CLR,,0.00,WeatherDisplay:10.37,2013-06-04 01:31:00,
2013-06-03 20:36:00,80.4,63.3,29.83,South,180,0.0,0.0,56,0.00,CLR,,0.00,WeatherDisplay:10.37,2013-06-04 01:36:00,
2013-06-03 20:41:00,80.2,63.1,29.83,SW,225,1.4,1.4,56,0.00,CLR,,0.00,WeatherDisplay:10.37,2013-06-04 01:41:00,
2013-06-03 20:46:00,80.1,63.5,29.83,North,0,2.4,2.4,57,0.00,CLR,,0.00,WeatherDisplay:10.37,2013-06-04 01:46:00,
2013-06-03 20:51:00,79.9,63.3,29.83,North,0,2.3,2.3,57,0.00,CLR,,0.00,WeatherDisplay:10.37,2013-06-04 01:51:00,
2013-06-03 20:56:00,79.7,63.6,29.83,North,0,1.1,1.1,58,0.00,CLR,,0.00,WeatherDisplay:10.37,2013-06-04 01:56:00,
2013-06-03 21:01:00,79.5,63.9,29.83,North,0,0.0,0.0,59,0.00,CLR,,0.00,WeatherDisplay:10.37,2013-06-04 02:01:00,
2013-06-03 21:06:00,79.3,64.2,29.83,North,0,2.2,2.2,60,0.00,CLR,,0.00,WeatherDisplay:10.37,2013-06-04 02:06:00,
2013-06-03 21:11:00,79.2,64.6,29.83,NNE,22,2.3,2.3,61,0.00,CLR,,0.00,WeatherDisplay:10.37,2013-06-04 02:11:00,
2013-06-03 21:16:00,79.0,64.8,29.83,North,0,2.3,2.3,62,0.00,CLR,,0.00,WeatherDisplay:10.37,2013-06-04 02:16:00,
2013-06-03 21:21:00,78.8,64.7,29.83,North,0,2.3,2.3,62,0.00,CLR,,0.00,WeatherDisplay:10.37,2013-06-04 02:21:00,
2013-06-03 21:26:00,78.8,65.1,29.83,North,0,2.3,2.3,63,0.00,CLR,,0.00,WeatherDisplay:10.37,2013-06-04 02:26:00,
2013-06-03 21:31:00,78.6,65.4,29.85,North,0,2.3,2.3,64,0.00,CLR,,0.00,WeatherDisplay:10.37,2013-06-04 02:31:00,
2013-06-03 21:36:00,78.4,65.2,29.85,North,0,2.3,2.3,64,0.00,CLR,,0.00,WeatherDisplay:10.37,2013-06-04 02:36:00,
2013-06-03 21:41:00,78.3,65.5,29.85,North,0,1.1,0.0,65,0.00,CLR,,0.00,WeatherDisplay:10.37,2013-06-04 02:41:00,
2013-06-03 21:46:00,78.1,65.8,29.85,North,0,2.3,2.3,66,0.00,CLR,,0.00,WeatherDisplay:10.37,2013-06-04 02:46:00,
2013-06-03 21:51:00,78.1,65.8,29.85,North,0,1.4,1.4,66,0.00,CLR,,0.00,WeatherDisplay:10.37,2013-06-04 02:51:00,
2013-06-03 21:56:00,77.9,66.1,29.85,North,0,1.1,1.1,67,0.00,CLR,,0.00,WeatherDisplay:10.37,2013-06-04 02:56:00,
2013-06-03 22:01:00,77.9,66.1,29.85,North,0,1.1,1.1,67,0.00,CLR,,0.00,WeatherDisplay:10.37,2013-06-04 03:01:00,
2013-06-03 22:06:00,77.7,65.9,29.85,North,0,1.1,0.0,67,0.00,CLR,,0.00,WeatherDisplay:10.37,2013-06-04 03:06:00,
2013-06-03 22:12:00,77.7,66.3,29.85,ESE,112,2.4,2.4,68,0.00,CLR,,0.00,WeatherDisplay:10.37,2013-06-04 03:12:00,
2013-06-03 22:17:00,77.5,66.6,29.85,SSE,158,2.3,2.3,69,0.00,CLR,,0.00,WeatherDisplay:10.37,2013-06-04 03:17:00,
2013-06-03 22:22:00,77.4,66.4,29.85,South,180,2.3,2.3,69,0.00,CLR,,0.00,WeatherDisplay:10.37,2013-06-04 03:22:00,
2013-06-03 22:27:00,77.2,66.6,29.85,SSE,158,2.3,2.3,70,0.00,CLR,,0.00,WeatherDisplay:10.37,2013-06-04 03:27:00,
2013-06-03 22:32:00,77.2,66.6,29.83,North,0,2.3,2.3,70,0.00,CLR,,0.00,WeatherDisplay:10.37,2013-06-04 03:32:00,
2013-06-03 22:37:00,77.4,67.6,29.83,North,0,2.3,2.9,72,0.00,CLR,,0.00,WeatherDisplay:10.37,2013-06-04 03:37:00,
2013-06-03 22:42:00,77.4,67.6,29.83,NNW,338,1.1,1.1,72,0.00,CLR,,0.00,WeatherDisplay:10.37,2013-06-04 03:42:00,
2013-06-03 22:47:00,77.4,67.6,29.85,NNE,22,1.6,1.6,72,0.00,CLR,,0.00,WeatherDisplay:10.37,2013-06-04 03:47:00,
2013-06-03 22:52:00,77.4,67.6,29.85,SSE,158,1.1,0.0,72,0.00,CLR,,0.00,WeatherDisplay:10.37,2013-06-04 03:52:00,
2013-06-03 22:57:00,77.4,67.6,29.85,East,90,2.3,2.3,72,0.00,CLR,,0.00,WeatherDisplay:10.37,2013-06-04 03:57:00,
2013-06-03 23:01:00,77.4,67.6,29.85,East,90,1.1,0.0,72,0.00,CLR,,0.00,WeatherDisplay:10.37,2013-06-04 04:01:00,
2013-06-03 23:06:00,77.2,67.5,29.85,SE,135,2.3,2.3,72,0.00,CLR,,0.00,WeatherDisplay:10.37,2013-06-04 04:06:00,
2013-06-03 23:11:00,77.0,67.7,29.85,NNE,22,1.1,0.0,73,0.00,CLR,,0.00,WeatherDisplay:10.37,2013-06-04 04:11:00,
2013-06-03 23:16:00,77.2,67.9,29.85,NNW,338,1.4,1.4,73,0.00,CLR,,0.00,WeatherDisplay:10.37,2013-06-04 04:16:00,
2013-06-03 23:22:00,77.2,68.2,29.85,North,0,1.4,1.4,74,0.00,CLR,,0.00,WeatherDisplay:10.37,2013-06-04 04:22:00,
2013-06-03 23:27:00,77.2,68.2,29.85,North,0,2.3,2.3,74,0.00,CLR,,0.00,WeatherDisplay:10.37,2013-06-04 04:27:00,
2013-06-03 23:32:00,77.0,68.5,29.85,North,0,2.3,2.3,75,0.00,CLR,,0.00,WeatherDisplay:10.37,2013-06-04 04:32:00,
2013-06-03 23:37:00,77.0,68.5,29.85,North,0,2.4,2.4,75,0.00,CLR,,0.00,WeatherDisplay:10.37,2013-06-04 04:37:00,
2013-06-03 23:42:00,77.0,68.5,29.85,North,0,3.5,3.5,75,0.00,CLR,,0.00,WeatherDisplay:10.37,2013-06-04 04:42:00,
2013-06-03 23:47:00,77.0,68.5,29.85,North,0,2.0,2.0,75,0.00,CLR,,0.00,WeatherDisplay:10.37,2013-06-04 04:47:00,
2013-06-03 23:52:00,77.0,68.5,29.85,North,0,2.3,2.3,75,0.00,CLR,,0.00,WeatherDisplay:10.37,2013-06-04 04:52:00,
2013-06-03 23:57:00,77.2,68.6,29.85,WNW,292,1.4,1.4,75,0.00,CLR,,0.00,WeatherDisplay:10.37,2013-06-04 04:57:00,